Tracking 35030 objects as of 11-Aug-2026
HD Live streaming from Space Station
objects crossing your sky now

JIELONG 3 R/B


JIELONG 3 R/B is no longer on orbit


NORAD ID: 65562
Int'l Code: 2025-201N
Launch date: September 8, 2025
Source: People's Republic of China (PRC)
Launch site: Yellow Sea Launch Area, China (YSLA)
Decay date: 2025-09-24

Note: This is a ROCKET BODY
Your satellite tracking list
Your tracking list is empty




NASA's NSSDC Master Catalog

Two Line Element Set (TLE):
1 65562U 25201N   25261.01708302  .04598552  12062-4  33322-3 0  9990
2 65562  50.1317 215.7431 0117337  23.6976 336.9364 16.19249342  1456
Source of the keplerian elements: AFSPC